DW7653 Weather Reports


Display with metric or nautical units.
time (UTC)temp
F
wind
direction
speed
MPH
gust
MPH
rain 1hr
in
rain 24hr
in
rain mn
in
humidity
%
barometer
mb
20260502163047 54 360 0.0 0.0 0.00 0.01 0.00 66 1013.3
20260502161544 54 360 0.0 0.0 0.00 0.01 0.00 66 1013.9
20260502151546 54 360 0.0 0.0 0.00 0.01 0.00 67 1013.5
20260502123026 52 360 0.0 0.0 0.00 0.01 0.00 66 1013.0
20260502121528 52 360 0.0 0.0 0.00 0.01 0.00 66 1012.7
20260502114525 52 360 0.0 0.0 0.00 0.01 0.00 64 1012.8
20260502113024 52 360 0.0 0.0 0.00 0.01 0.00 65 1012.9
20260502111526 52 360 0.0 0.0 0.00 0.01 0.00 64 1012.6
20260502110023 52 360 0.0 0.0 0.00 0.01 0.00 63 1012.9
20260502104536 52 360 0.0 0.0 0.00 0.01 0.00 64 1012.9
20260502103021 52 360 0.0 0.0 0.00 0.01 0.00 63 1012.8
20260502101521 52 360 0.0 0.0 0.00 0.01 0.00 63 1013.0
20260502091515 52 360 0.0 0.0 0.00 0.01 0.00 49 1012.9
20260502071509 51 360 0.0 0.0 0.00 0.01 0.00 52 1011.9
20260502070014 51 360 0.0 0.0 0.00 0.01 0.00 53 1012.2
20260502064520 51 360 0.0 0.0 0.00 0.01 0.00 53 1012.1
20260502063010 51 360 0.0 0.0 0.00 0.01 0.00 54 1012.1
20260502061505 51 360 0.0 0.0 0.00 0.01 0.00 56 1012.1
20260502060008 51 360 0.0 0.0 0.00 0.01 0.00 56 1011.9
20260502054502 52 360 0.0 0.0 0.00 0.01 0.00 56 1012.2
20260502053002 52 360 0.0 0.0 0.00 0.01 0.00 58 1012.4
20260502051604 52 360 0.0 0.0 0.00 0.01 0.00 60 1012.3
20260502050100 52 360 0.0 0.0 0.00 0.01 0.00 59 1012.5
20260502044557 52 360 0.0 0.0 0.00 0.01 0.00 59 1012.7
20260502043105 52 360 0.0 0.0 0.00 0.01 0.00 61 1012.8
20260502041553 52 360 0.0 0.0 0.00 0.01 0.00 62 1012.7
20260502040051 52 360 0.0 0.0 0.00 0.01 0.00 62 1012.8
20260502034551 53 360 0.0 0.0 0.00 0.01 0.01 62 1012.9
20260502033054 53 360 0.0 0.0 0.00 0.01 0.01 63 1012.9
20260502031549 53 360 0.0 0.0 0.00 0.01 0.01 64 1012.9
20260502030048 53 360 0.0 0.0 0.00 0.01 0.01 64 1013.0
20260502024548 53 360 0.0 0.0 0.00 0.01 0.01 66 1012.9
20260502023047 53 360 0.0 0.0 0.00 0.01 0.01 66 1012.9
20260502021546 54 360 0.0 0.0 0.00 0.01 0.01 66 1013.1
20260502020046 54 360 0.0 0.0 0.00 0.01 0.01 66 1013.0
20260502014554 54 360 0.0 0.0 0.00 0.01 0.01 67 1012.9
20260502013054 54 360 0.0 0.0 0.00 0.01 0.01 67 1012.9
20260502011603 55 360 0.0 0.0 0.00 0.01 0.01 66 1012.8
20260502010047 55 360 0.0 0.0 0.00 0.01 0.01 66 1012.6
20260502004557 56 360 0.0 0.0 0.00 0.01 0.01 66 1012.4
20260502003043 56 360 0.0 0.0 0.00 0.01 0.01 65 1012.3
20260502001544 57 360 0.0 0.0 0.00 0.01 0.01 65 1012.1
20260502000051 57 360 0.0 0.0 0.00 0.01 0.01 64 1011.9
20260501234544 57 360 0.0 0.0 0.00 0.01 0.01 64 1012.0
20260501233042 58 360 0.0 0.0 0.00 0.01 0.01 63 1012.1
20260501231550 58 360 0.0 0.0 0.00 0.01 0.01 61 1011.9
20260501230041 58 360 0.0 0.0 0.00 0.01 0.01 60 1011.9
20260501224539 59 360 0.0 0.0 0.00 0.01 0.01 59 1012.0
20260501223038 60 360 0.0 0.0 0.00 0.01 0.01 59 1012.1
20260501221552 60 360 0.0 0.0 0.00 0.01 0.01 56 1012.2
20260501220042 61 360 0.0 0.0 0.00 0.01 0.01 56 1012.1
20260501214536 61 360 0.0 0.0 0.00 0.01 0.01 55 1012.3
20260501213039 62 360 0.0 0.0 0.00 0.01 0.01 52 1012.3
20260501211533 63 360 0.0 0.0 0.00 0.01 0.01 52 1012.5
20260501210032 64 360 0.0 0.0 0.00 0.01 0.01 48 1012.5
20260501204532 64 360 0.0 0.0 0.00 0.01 0.01 44 1012.3
20260501203030 64 360 0.0 0.0 0.00 0.01 0.01 46 1012.3
20260501201529 64 360 0.0 0.0 0.00 0.01 0.01 45 1012.4
20260501200027 64 360 0.0 0.0 0.00 0.01 0.01 45 1012.7
20260501194526 64 360 0.0 0.0 0.00 0.01 0.01 44 1012.8
20260501193034 64 360 0.0 0.0 0.00 0.01 0.01 43 1013.1
20260501191531 64 360 0.0 0.0 0.00 0.01 0.01 43 1013.1
20260501190044 64 360 0.0 0.0 0.00 0.01 0.01 44 1013.4
20260501184531 63 360 0.0 0.0 0.00 0.01 0.01 47 1013.7
20260501183021 62 360 0.0 0.0 0.00 0.01 0.01 45 1014.0
20260501181517 62 360 0.0 0.0 0.00 0.01 0.01 45 1014.1
20260501180017 62 360 0.0 0.0 0.00 0.01 0.01 47 1014.2
20260501174515 61 360 0.0 0.0 0.00 0.01 0.01 51 1014.4
20260501173010 60 360 0.0 0.0 0.00 0.01 0.01 52 1014.4